Погода в Выгоде

Украина / Одесская область     46°36′58″N   30°23′55″E
темп.,
°C
ветер,
м/с
пор.,
м/с
влажн.,
%
обл.,
%
осадки,
мм/ч
давл.,
гПа
погр.,
м
2 марта, вт
вт223:00+2с4777100 0.0 1032637
02:00+1с478393 0.0 1033256
05:00+1сз2573100 0.0 1032185
08:00+1сз227467 0.0 1032112
11:00+5зсз456125 0.0 10311013
14:00+8з575442 0.0 1028987
17:00+8з5105959 0.0 1026799
20:00+6з5126939 0.0 1025317
3 марта, ср
ср323:00+5сз5147721 0.0 1025477
02:00+4с6118126 0.0 1026676
05:00+4с61072100 0.0 1027932
08:00+4ссз596578 0.0 1029850
11:00+7ссз57550 0.0 10291101
14:00+9ссз45420 0.0 10291302
17:00+8сз344720 0.0 1028760
20:00+6зсз225860 0.0 102822
4 марта, чт
чт423:00+4зюз126126 0.0 102822
02:00+3юз346413 0.0 102640
05:00+2юз34800 0.0 102382
08:00+4юз510810 0.0 1022301
11:00+10юз710590 0.0 1020704
14:00+12ююз810530 0.0 1017949
17:00+11ююз595839 0.0 1015408
20:00+7ююз5108023 0.0 1015225
5 марта, пт
пт523:00+6ююз47850 0.0 1014142
02:00+5юз348614 0.0 101353
05:00+5ююз348658 0.0 101241
08:00+6ююз348179 0.0 1012137
11:00+11юз4553100 0.0 1011383
14:00+15юз344390 0.0 1010854
17:00+14сз224512 0.0 101042
20:00+9ссв5106422 0.0 1011257
6 марта, сб
сб623:00+7св487727 0.0 1012208
02:00+6с6108861 0.0 1014407
05:00+5с71089100 0.1 1015496
08:00+2ссв81276100 0.2 1018754
11:00+4с81046100 0.0 10201231
14:00+4с7943100 0.0 10221513
17:00+3с7935100 0.0 10241636
20:00+1ссз494962 0.0 1026282